Dallas Redbird, TX

7:04 AM CDT on April 30, 2017 (GMT -0500)
Redbird

Weather History for KRBD - January, 2014

Change the Weather History Date:

Friday, January 17, 2014

  Actual Average Record
Temperature  
Mean Temperature 46 °F -  
Max Temperature 55 °F 55 °F 73 °F (1999)
Min Temperature 37 °F 36 °F 23 °F (1997)
Degree Days  
Heating Degree Days 19    
Moisture  
Dew Point 11 °F    
Average Humidity 23    
Maximum Humidity 39    
Minimum Humidity 16    
Precipitation  
Precipitation 0.00 in - - ()
Sea Level Pressure  
Sea Level Pressure 30.26 in    
Wind  
Wind Speed 10 mph (NNW)    
Max Wind Speed 16 mph    
Max Gust Speed 25 mph    
Visibility 10 miles    
Events      
Averages and records for this station are not official NWS values.
T = Trace of Precipitation, MM = Missing Value Source: NWS Daily Summary

Daily Weather History Graph

Daily Weather History Graph

Search for Another Location

Airport or City:

Trip Planner

Search our weather history database for the weather conditions in past years. The results will help you decide how hot, cold, wet, or windy it might be!

Date:

Astronomy

Jan. 17, 2014 Rise Set
Actual Time 7:29 AM CST 5:46 PM CST
Civil Twilight 7:02 AM CST 6:12 PM CST
Nautical Twilight 6:32 AM CST 6:42 PM CST
Astronomical Twilight 6:03 AM CST 7:12 PM CST
Moon 7:25 PM CST (1/17) 8:04 AM CST (1/17)
Length of Visible Light 11h 10m
Length of Day
10h 16m
Full, 98% of the Moon is Illuminated
Jan 17
Full
Jan 23
Last Quarter
Jan 30
New
Feb 6
First Quarter
Feb 14
Full

Hourly Weather History & Observations

Time (CST) Temp. Windchill Dew Point Humidity Pressure Visibility Wind Dir Wind Speed Gust Speed Precip Events Conditions
12:53 AM 51.1 °F - 8.1 °F 18% 30.19 in 10.0 mi NW 12.7 mph - N/A   Overcast
1:53 AM 52.0 °F - 6.1 °F 16% 30.19 in 10.0 mi NNW 13.8 mph - N/A   Scattered Clouds
2:53 AM 52.0 °F - 7.0 °F 16% 30.21 in 10.0 mi NW 10.4 mph - N/A   Partly Cloudy
3:53 AM 51.1 °F - 8.1 °F 18% 30.22 in 10.0 mi NW 9.2 mph - N/A   Clear
4:53 AM 52.0 °F - 7.0 °F 16% 30.24 in 10.0 mi NNW 12.7 mph - N/A   Clear
5:53 AM 48.9 °F - 12.9 °F 24% 30.27 in 10.0 mi North 15.0 mph 23.0 mph N/A   Clear
6:53 AM 46.0 °F 41.4 °F 14.0 °F 28% 30.29 in 10.0 mi North 9.2 mph - N/A   Overcast
7:53 AM 43.0 °F 36.8 °F 12.9 °F 30% 30.32 in 10.0 mi North 11.5 mph - N/A   Clear
8:53 AM 46.0 °F 40.6 °F 15.1 °F 29% 30.33 in 10.0 mi North 11.5 mph - N/A   Clear
9:53 AM 46.9 °F - 10.0 °F 22% 30.36 in 10.0 mi NNW 16.1 mph 25.3 mph N/A   Clear
10:53 AM 48.9 °F - 9.0 °F 20% 30.36 in 10.0 mi NNW 16.1 mph 24.2 mph N/A   Clear
11:53 AM 51.1 °F - 10.9 °F 20% 30.34 in 10.0 mi North 13.8 mph - N/A   Clear
12:53 PM 52.0 °F - 10.0 °F 19% 30.30 in 10.0 mi North 11.5 mph - N/A   Clear
1:53 PM 55.0 °F - 10.0 °F 17% 30.27 in 10.0 mi NW 11.5 mph - N/A   Clear
2:53 PM 54.0 °F - 9.0 °F 17% 30.26 in 10.0 mi North 9.2 mph - N/A   Clear
3:53 PM 55.9 °F - 10.0 °F 16% 30.25 in 10.0 mi Variable 5.8 mph - N/A   Clear
4:53 PM 54.0 °F - 9.0 °F 17% 30.25 in 10.0 mi NW 5.8 mph - N/A   Clear
5:53 PM 48.9 °F - 12.0 °F 23% 30.25 in 10.0 mi Calm Calm - N/A   Clear
6:53 PM 46.0 °F - 10.9 °F 24% 30.25 in 10.0 mi Calm Calm - N/A   Clear
7:53 PM 44.1 °F - 12.9 °F 28% 30.25 in 10.0 mi Calm Calm - N/A   Clear
8:53 PM 37.9 °F 35.5 °F 15.1 °F 39% 30.25 in 10.0 mi SSE 3.5 mph - N/A   Clear
9:53 PM 39.9 °F 37.8 °F 15.1 °F 36% 30.23 in 10.0 mi South 3.5 mph - N/A   Clear
10:53 PM 43.0 °F 40.3 °F 14.0 °F 31% 30.21 in 10.0 mi South 4.6 mph - N/A   Clear
11:53 PM 42.1 °F 38.4 °F 14.0 °F 32% 30.19 in 10.0 mi South 5.8 mph - N/A   Clear